Simultaneous Nadir Overpasses (SNOs) Predictions

Prediction of SNOs between AQUA and METOP-B Satellite Orbit:

Table of predicted SNOs for the next 14.0 days since TLE Epoch: 8/7/2015
Index Date (AQUA) Time (AQUA) Lat,Lon (AQUA) SZA (AQUA ) Date (METOP-B) Time (METOP-B) Lat,Lon (METOP-B) SZA (METOP-B ) Distance(km) Time Diff (sec)
1 08/08/2015 06:27:08 -73.71,-102.22 122.46 08/08/2015 06:26:31 -73.71,-102.30 122.45 2.51 37
2 08/08/2015 07:16:37 73.79, 65.24 57.64 08/08/2015 07:17:09 73.78, 65.21 57.63 1.64 32
3 08/11/2015 02:01:23 -73.71, -35.77 121.66 08/11/2015 02:00:52 -73.73, -35.85 121.63 3.27 31
4 08/11/2015 02:50:52 73.79, 131.67 58.45 08/11/2015 02:51:30 73.80, 131.65 58.45 0.68 38
5 08/13/2015 21:35:38 -73.72, 30.63 120.80 08/13/2015 21:35:13 -73.74, 30.60 120.77 2.58 25
6 08/13/2015 22:25:07 73.82,-161.94 59.31 08/13/2015 22:25:51 73.81,-161.91 59.30 1.34 44
7 08/16/2015 16:20:12 73.02, -69.12 59.32 08/16/2015 16:19:07 72.93, -72.12 59.36 98.03 65
8 08/16/2015 17:09:52 -73.76, 96.99 119.89 08/16/2015 17:09:33 -73.75, 97.04 119.89 1.53 19
9 08/16/2015 17:59:20 73.81, -95.48 60.18 08/16/2015 18:00:11 73.81, -95.48 60.18 0.88 51
10 08/19/2015 11:54:31 73.30, -3.24 60.51 08/19/2015 11:53:22 73.24, -5.05 60.53 58.14 69
11 08/19/2015 12:44:06 -73.76, 163.42 118.99 08/19/2015 12:43:54 -73.76, 163.46 118.99 1.50 12
12 08/19/2015 13:33:34 73.82, -29.07 61.09 08/19/2015 13:34:32 73.82, -29.06 61.08 0.26 58




NCC Satellite Simultaneous Nadir Overpasses (SNOs) Prediction Service
